Time,TemperatureF,DewpointF,PressureIn,WindDirection,WindDirectionDegrees,WindSpeedMPH,WindSpeedGustMPH,Humidity,HourlyPrecipIn,Conditions,Clouds,dailyrainin,SoftwareType,DateUTC
2013-01-25 00:02:00,25.3,22.5,30.27,NW,316,2.0,2.0,89,0.00,,,0.00,Wunderground v.1.15,2013-01-25 06:02:00,
2013-01-25 00:12:00,25.5,22.7,30.27,NW,306,3.0,3.0,89,0.00,,,0.00,Wunderground v.1.15,2013-01-25 06:12:00,
2013-01-25 00:22:00,25.7,22.6,30.28,WNW,302,5.0,5.0,88,0.00,,,0.00,Wunderground v.1.15,2013-01-25 06:22:00,
2013-01-25 00:32:00,25.8,22.5,30.26,WSW,257,3.0,3.0,87,0.00,,,0.00,Wunderground v.1.15,2013-01-25 06:32:00,
2013-01-25 00:42:00,26.0,22.7,30.26,West,276,2.0,2.0,87,0.00,,,0.00,Wunderground v.1.15,2013-01-25 06:42:00,
2013-01-25 00:52:00,26.1,22.5,30.26,WNW,291,3.0,4.0,86,0.00,,,0.00,Wunderground v.1.15,2013-01-25 06:52:00,
2013-01-25 01:02:00,26.3,22.7,30.26,NW,312,4.0,4.0,86,0.00,,,0.00,Wunderground v.1.15,2013-01-25 07:02:00,
2013-01-25 01:12:00,26.4,22.5,30.26,NW,316,3.0,3.0,85,0.00,,,0.00,Wunderground v.1.15,2013-01-25 07:12:00,
2013-01-25 01:22:00,26.6,22.7,30.27,WNW,297,3.0,3.0,85,0.00,,,0.00,Wunderground v.1.15,2013-01-25 07:22:00,
2013-01-25 01:32:00,26.7,22.5,30.27,WNW,291,2.0,2.0,84,0.00,,,0.00,Wunderground v.1.15,2013-01-25 07:32:00,
2013-01-25 01:42:00,26.9,22.7,30.28,WNW,284,1.0,1.0,84,0.00,,,0.00,Wunderground v.1.15,2013-01-25 07:42:00,
2013-01-25 01:52:00,27.0,21.9,30.28,WNW,300,1.0,2.0,81,0.00,,,0.00,Wunderground v.1.15,2013-01-25 07:52:00,
2013-01-25 02:02:00,27.2,21.5,30.29,NW,321,2.0,3.0,79,0.00,,,0.00,Wunderground v.1.15,2013-01-25 08:02:00,
2013-01-25 02:12:00,27.3,21.6,30.28,NNW,327,3.0,3.0,79,0.00,,,0.00,Wunderground v.1.15,2013-01-25 08:12:00,
2013-01-25 02:22:00,27.4,21.4,30.28,NNW,344,2.0,2.0,78,0.00,,,0.00,Wunderground v.1.15,2013-01-25 08:22:00,
2013-01-25 02:32:00,27.5,21.2,30.28,NNW,346,2.0,2.0,77,0.00,,,0.00,Wunderground v.1.15,2013-01-25 08:32:00,
2013-01-25 02:42:00,27.6,21.3,30.29,NNE,22,3.0,5.0,77,0.00,,,0.00,Wunderground v.1.15,2013-01-25 08:42:00,
2013-01-25 02:52:00,27.6,21.0,30.29,NW,311,2.0,2.0,76,0.00,,,0.00,Wunderground v.1.15,2013-01-25 08:52:00,
2013-01-25 03:02:00,27.7,21.1,30.29,NW,311,1.0,1.0,76,0.00,,,0.00,Wunderground v.1.15,2013-01-25 09:02:00,
2013-01-25 03:12:00,27.8,21.2,30.29,NNW,329,2.0,2.0,76,0.00,,,0.00,Wunderground v.1.15,2013-01-25 09:12:00,
2013-01-25 03:22:00,27.8,21.2,30.28,North,1,1.0,1.0,76,0.00,,,0.00,Wunderground v.1.15,2013-01-25 09:22:00,
2013-01-25 03:32:00,27.9,21.0,30.28,NW,321,1.0,2.0,75,0.00,,,0.00,Wunderground v.1.15,2013-01-25 09:32:00,
2013-01-25 03:42:00,28.0,20.8,30.28,North,352,3.0,3.0,74,0.00,,,0.00,Wunderground v.1.15,2013-01-25 09:42:00,
2013-01-25 03:52:00,27.9,20.7,30.28,North,1,3.0,3.0,74,0.00,,,0.00,Wunderground v.1.15,2013-01-25 09:52:00,
2013-01-25 04:02:00,27.6,20.4,30.28,NNW,339,1.0,1.0,74,0.00,,,0.00,Wunderground v.1.15,2013-01-25 10:02:00,
2013-01-25 04:12:00,27.3,20.4,30.28,North,357,1.0,1.0,75,0.00,,,0.00,Wunderground v.1.15,2013-01-25 10:12:00,
2013-01-25 04:22:00,27.1,20.2,30.28,NNW,327,1.0,1.0,75,0.00,,,0.00,Wunderground v.1.15,2013-01-25 10:22:00,
2013-01-25 04:32:00,26.8,20.2,30.28,NNW,328,0.0,0.0,76,0.00,,,0.00,Wunderground v.1.15,2013-01-25 10:32:00,
2013-01-25 04:42:00,26.6,20.4,30.29,NW,315,0.0,1.0,77,0.00,,,0.00,Wunderground v.1.15,2013-01-25 10:42:00,
2013-01-25 04:52:00,26.5,20.0,30.30,NW,315,1.0,1.0,76,0.00,,,0.00,Wunderground v.1.15,2013-01-25 10:52:00,
2013-01-25 05:02:00,26.1,19.9,30.30,NW,315,0.0,0.0,77,0.00,,,0.00,Wunderground v.1.15,2013-01-25 11:02:00,
2013-01-25 05:12:00,26.1,20.2,30.31,NNW,340,0.0,1.0,78,0.00,,,0.00,Wunderground v.1.15,2013-01-25 11:12:00,
2013-01-25 05:22:00,25.7,19.8,30.31,NW,316,1.0,1.0,78,0.00,,,0.00,Wunderground v.1.15,2013-01-25 11:22:00,
2013-01-25 05:32:00,25.4,19.8,30.31,WNW,300,0.0,1.0,79,0.00,,,0.00,Wunderground v.1.15,2013-01-25 11:32:00,
2013-01-25 05:42:00,24.7,19.1,30.31,NNE,16,1.0,2.0,79,0.00,,,0.00,Wunderground v.1.15,2013-01-25 11:42:00,
2013-01-25 05:52:00,24.4,19.7,30.31,NNW,335,1.0,1.0,82,0.00,,,0.00,Wunderground v.1.15,2013-01-25 11:52:00,
2013-01-25 06:02:00,24.6,20.2,30.31,NNW,335,0.0,0.0,83,0.00,,,0.00,Wunderground v.1.15,2013-01-25 12:02:00,
2013-01-25 06:12:00,24.7,20.6,30.31,NNW,335,0.0,0.0,84,0.00,,,0.00,Wunderground v.1.15,2013-01-25 12:12:00,
2013-01-25 06:22:00,24.3,20.2,30.31,NNW,335,0.0,0.0,84,0.00,,,0.00,Wunderground v.1.15,2013-01-25 12:22:00,
2013-01-25 06:32:00,24.3,20.7,30.32,NNW,334,0.0,0.0,86,0.00,,,0.00,Wunderground v.1.15,2013-01-25 12:32:00,
2013-01-25 06:42:00,23.9,20.0,30.32,NNW,330,0.0,0.0,85,0.00,,,0.00,Wunderground v.1.15,2013-01-25 12:42:00,
2013-01-25 06:52:00,23.3,19.7,30.33,NNW,330,0.0,0.0,86,0.00,,,0.00,Wunderground v.1.15,2013-01-25 12:52:00,
2013-01-25 07:02:00,23.0,19.4,30.33,NNW,330,0.0,0.0,86,0.00,,,0.00,Wunderground v.1.15,2013-01-25 13:02:00,
2013-01-25 07:12:00,22.8,19.5,30.33,NNW,330,0.0,0.0,87,0.00,,,0.00,Wunderground v.1.15,2013-01-25 13:12:00,
2013-01-25 07:22:00,22.9,19.3,30.33,WNW,303,0.0,0.0,86,0.00,,,0.00,Wunderground v.1.15,2013-01-25 13:22:00,
2013-01-25 07:32:00,22.5,18.7,30.33,NW,304,0.0,0.0,85,0.00,,,0.00,Wunderground v.1.15,2013-01-25 13:32:00,
2013-01-25 07:42:00,22.8,19.5,30.33,NW,304,0.0,0.0,87,0.00,,,0.00,Wunderground v.1.15,2013-01-25 13:42:00,
2013-01-25 07:52:00,23.2,19.6,30.34,NW,307,0.0,0.0,86,0.00,,,0.00,Wunderground v.1.15,2013-01-25 13:52:00,
2013-01-25 08:02:00,23.7,20.4,30.34,NW,308,0.0,0.0,87,0.00,,,0.00,Wunderground v.1.15,2013-01-25 14:02:00,
2013-01-25 08:12:00,24.5,20.9,30.34,NW,307,0.0,0.0,86,0.00,,,0.00,Wunderground v.1.15,2013-01-25 14:12:00,
2013-01-25 08:22:00,25.0,21.1,30.33,NW,311,0.0,0.0,85,0.00,,,0.00,Wunderground v.1.15,2013-01-25 14:22:00,
2013-01-25 08:32:00,25.4,21.2,30.34,NW,310,0.0,1.0,84,0.00,,,0.00,Wunderground v.1.15,2013-01-25 14:32:00,
2013-01-25 08:42:00,26.1,21.9,30.34,NW,308,1.0,1.0,84,0.00,,,0.00,Wunderground v.1.15,2013-01-25 14:42:00,
2013-01-25 08:52:00,26.8,22.6,30.34,WNW,291,1.0,2.0,84,0.00,,,0.00,Wunderground v.1.15,2013-01-25 14:52:00,
2013-01-25 09:02:00,27.3,22.5,30.34,WNW,300,1.0,1.0,82,0.00,,,0.00,Wunderground v.1.15,2013-01-25 15:02:00,
2013-01-25 09:12:00,28.3,22.3,30.34,NW,304,2.0,2.0,78,0.00,,,0.00,Wunderground v.1.15,2013-01-25 15:12:00,
2013-01-25 09:22:00,29.3,21.4,30.34,WNW,301,3.0,3.0,72,0.00,,,0.00,Wunderground v.1.15,2013-01-25 15:22:00,
2013-01-25 09:32:00,30.0,21.4,30.35,WNW,298,3.0,4.0,70,0.00,,,0.00,Wunderground v.1.15,2013-01-25 15:32:00,
2013-01-25 09:42:00,30.9,21.6,30.35,NW,314,2.0,3.0,68,0.00,,,0.00,Wunderground v.1.15,2013-01-25 15:42:00,
2013-01-25 09:52:00,31.9,21.8,30.35,NNW,348,2.0,3.0,66,0.00,,,0.00,Wunderground v.1.15,2013-01-25 15:52:00,
2013-01-25 10:02:00,31.8,21.4,30.36,NNW,348,3.0,3.0,65,0.00,,,0.00,Wunderground v.1.15,2013-01-25 16:02:00,
2013-01-25 10:12:00,32.3,21.8,30.37,WNW,297,3.0,4.0,65,0.00,,,0.00,Wunderground v.1.15,2013-01-25 16:12:00,
2013-01-25 10:22:00,33.0,22.5,30.37,WNW,287,3.0,4.0,65,0.00,,,0.00,Wunderground v.1.15,2013-01-25 16:22:00,
2013-01-25 10:32:00,33.6,23.1,30.37,WNW,300,3.0,7.0,65,0.00,,,0.00,Wunderground v.1.15,2013-01-25 16:32:00,
2013-01-25 10:42:00,34.2,22.9,30.38,WNW,300,5.0,6.0,63,0.00,,,0.00,Wunderground v.1.15,2013-01-25 16:42:00,
2013-01-25 10:52:00,34.6,22.9,30.38,NNW,348,5.0,5.0,62,0.00,,,0.00,Wunderground v.1.15,2013-01-25 16:52:00,
2013-01-25 11:02:00,35.7,23.9,30.38,WNW,295,4.0,4.0,62,0.00,,,0.00,Wunderground v.1.15,2013-01-25 17:02:00,
2013-01-25 11:12:00,36.4,23.4,30.38,WNW,297,4.0,7.0,59,0.00,,,0.00,Wunderground v.1.15,2013-01-25 17:12:00,
2013-01-25 11:22:00,36.8,23.4,30.38,NNW,345,5.0,5.0,58,0.00,,,0.00,Wunderground v.1.15,2013-01-25 17:22:00,
2013-01-25 11:32:00,37.3,23.9,30.38,NW,321,4.0,4.0,58,0.00,,,0.00,Wunderground v.1.15,2013-01-25 17:32:00,
2013-01-25 11:42:00,38.0,24.1,30.38,NW,318,5.0,5.0,57,0.00,,,0.00,Wunderground v.1.15,2013-01-25 17:42:00,
2013-01-25 11:52:00,38.6,23.8,30.39,WNW,297,5.0,5.0,55,0.00,,,0.00,Wunderground v.1.15,2013-01-25 17:52:00,
2013-01-25 12:02:00,38.9,23.7,30.38,NNW,334,4.0,5.0,54,0.00,,,0.00,Wunderground v.1.15,2013-01-25 18:02:00,
2013-01-25 12:12:00,39.3,24.0,30.38,NNE,31,4.0,5.0,54,0.00,,,0.00,Wunderground v.1.15,2013-01-25 18:12:00,
2013-01-25 12:22:00,39.7,24.0,30.37,NE,37,4.0,6.0,53,0.00,,,0.00,Wunderground v.1.15,2013-01-25 18:22:00,
2013-01-25 12:32:00,40.2,24.4,30.38,WNW,293,5.0,5.0,53,0.00,,,0.00,Wunderground v.1.15,2013-01-25 18:32:00,
2013-01-25 12:42:00,41.2,24.9,30.37,NNW,347,4.0,4.0,52,0.00,,,0.00,Wunderground v.1.15,2013-01-25 18:42:00,
2013-01-25 12:52:00,41.7,24.9,30.36,NNE,27,3.0,3.0,51,0.00,,,0.00,Wunderground v.1.15,2013-01-25 18:52:00,
2013-01-25 13:02:00,42.9,25.0,30.36,NE,41,2.0,3.0,49,0.00,,,0.00,Wunderground v.1.15,2013-01-25 19:02:00,
2013-01-25 13:12:00,43.3,24.4,30.35,NNE,20,2.0,2.0,47,0.00,,,0.00,Wunderground v.1.15,2013-01-25 19:12:00,
2013-01-25 13:22:00,44.4,24.9,30.34,WNW,297,3.0,3.0,46,0.00,,,0.00,Wunderground v.1.15,2013-01-25 19:22:00,
2013-01-25 13:32:00,44.7,25.2,30.34,WNW,287,3.0,3.0,46,0.00,,,0.00,Wunderground v.1.15,2013-01-25 19:32:00,
2013-01-25 13:42:00,45.8,25.6,30.33,NNW,335,2.0,6.0,45,0.00,,,0.00,Wunderground v.1.15,2013-01-25 19:42:00,
2013-01-25 13:52:00,46.3,25.6,30.33,NW,323,3.0,4.0,44,0.00,,,0.00,Wunderground v.1.15,2013-01-25 19:52:00,
2013-01-25 14:02:00,46.6,25.8,30.33,ENE,57,3.0,4.0,44,0.00,,,0.00,Wunderground v.1.15,2013-01-25 20:02:00,
2013-01-25 14:12:00,47.0,25.6,30.33,NNW,334,4.0,4.0,43,0.00,,,0.00,Wunderground v.1.15,2013-01-25 20:12:00,
2013-01-25 14:22:00,47.7,25.7,30.32,NNE,25,3.0,6.0,42,0.00,,,0.00,Wunderground v.1.15,2013-01-25 20:22:00,
2013-01-25 14:32:00,48.2,25.6,30.32,ENE,77,3.0,4.0,41,0.00,,,0.00,Wunderground v.1.15,2013-01-25 20:32:00,
2013-01-25 14:42:00,48.4,26.3,30.32,North,354,3.0,3.0,42,0.00,,,0.00,Wunderground v.1.15,2013-01-25 20:42:00,
2013-01-25 14:52:00,49.1,27.0,30.32,NW,304,3.0,3.0,42,0.00,,,0.00,Wunderground v.1.15,2013-01-25 20:52:00,
2013-01-25 15:02:00,49.3,26.0,30.32,ENE,65,3.0,3.0,40,0.00,,,0.00,Wunderground v.1.15,2013-01-25 21:02:00,
2013-01-25 15:12:00,49.6,26.2,30.31,ENE,65,3.0,3.0,40,0.00,,,0.00,Wunderground v.1.15,2013-01-25 21:12:00,
2013-01-25 15:22:00,49.8,26.4,30.31,ENE,72,3.0,4.0,40,0.00,,,0.00,Wunderground v.1.15,2013-01-25 21:22:00,
2013-01-25 15:32:00,49.5,26.1,30.31,ENE,72,4.0,4.0,40,0.00,,,0.00,Wunderground v.1.15,2013-01-25 21:32:00,
2013-01-25 15:42:00,49.7,26.3,30.31,ENE,62,4.0,4.0,40,0.00,,,0.00,Wunderground v.1.15,2013-01-25 21:42:00,
2013-01-25 15:52:00,49.9,26.5,30.30,NE,56,4.0,4.0,40,0.00,,,0.00,Wunderground v.1.15,2013-01-25 21:52:00,
2013-01-25 16:02:00,49.8,26.4,30.30,ENE,57,5.0,5.0,40,0.00,,,0.00,Wunderground v.1.15,2013-01-25 22:02:00,
2013-01-25 16:12:00,49.8,26.4,30.29,East,89,5.0,5.0,40,0.00,,,0.00,Wunderground v.1.15,2013-01-25 22:12:00,
2013-01-25 16:22:00,49.7,26.9,30.29,East,83,4.0,4.0,41,0.00,,,0.00,Wunderground v.1.15,2013-01-25 22:22:00,
2013-01-25 16:32:00,49.9,26.5,30.29,ENE,65,4.0,4.0,40,0.00,,,0.00,Wunderground v.1.15,2013-01-25 22:32:00,
2013-01-25 16:42:00,49.5,26.1,30.30,ENE,70,3.0,3.0,40,0.00,,,0.00,Wunderground v.1.15,2013-01-25 22:42:00,
2013-01-25 16:52:00,49.2,25.9,30.29,East,83,2.0,2.0,40,0.00,,,0.00,Wunderground v.1.15,2013-01-25 22:52:00,
2013-01-25 17:02:00,48.9,26.2,30.29,East,91,2.0,2.0,41,0.00,,,0.00,Wunderground v.1.15,2013-01-25 23:02:00,
2013-01-25 17:11:00,48.5,26.4,30.29,East,91,1.0,2.0,42,0.00,,,0.00,Wunderground v.1.15,2013-01-25 23:11:00,
2013-01-25 17:22:00,48.1,26.6,30.29,East,96,1.0,1.0,43,0.00,,,0.00,Wunderground v.1.15,2013-01-25 23:22:00,
2013-01-25 17:32:00,47.7,26.3,30.29,ESE,108,1.0,2.0,43,0.00,,,0.00,Wunderground v.1.15,2013-01-25 23:32:00,
2013-01-25 17:42:00,46.7,26.5,30.29,ESE,117,1.0,1.0,45,0.00,,,0.00,Wunderground v.1.15,2013-01-25 23:42:00,
2013-01-25 17:52:00,46.1,26.4,30.30,SW,228,1.0,2.0,46,0.00,,,0.00,Wunderground v.1.15,2013-01-25 23:52:00,
2013-01-25 18:02:00,45.2,25.6,30.30,SSW,212,2.0,2.0,46,0.00,,,0.00,Wunderground v.1.15,2013-01-26 00:02:00,
2013-01-25 18:12:00,44.7,25.7,30.31,WSW,249,2.0,2.0,47,0.00,,,0.00,Wunderground v.1.15,2013-01-26 00:12:00,
2013-01-25 18:22:00,44.0,26.0,30.32,West,262,2.0,3.0,49,0.00,,,0.00,Wunderground v.1.15,2013-01-26 00:22:00,
2013-01-25 18:32:00,44.1,26.1,30.31,SW,224,2.0,2.0,49,0.00,,,0.00,Wunderground v.1.15,2013-01-26 00:32:00,
2013-01-25 18:42:00,43.9,26.0,30.31,SW,215,1.0,1.0,49,0.00,,,0.00,Wunderground v.1.15,2013-01-26 00:42:00,
2013-01-25 18:52:00,43.4,25.5,30.31,SW,217,0.0,0.0,49,0.00,,,0.00,Wunderground v.1.15,2013-01-26 00:52:00,
2013-01-25 19:02:00,43.3,25.9,30.31,SW,228,0.0,0.0,50,0.00,,,0.00,Wunderground v.1.15,2013-01-26 01:02:00,
2013-01-25 19:12:00,43.2,25.8,30.31,SW,227,0.0,0.0,50,0.00,,,0.00,Wunderground v.1.15,2013-01-26 01:12:00,
2013-01-25 19:22:00,43.1,25.7,30.31,SW,226,0.0,1.0,50,0.00,,,0.00,Wunderground v.1.15,2013-01-26 01:22:00,
2013-01-25 19:32:00,42.9,25.5,30.31,SW,224,1.0,1.0,50,0.00,,,0.00,Wunderground v.1.15,2013-01-26 01:32:00,
2013-01-25 19:42:00,42.9,25.5,30.31,SSW,204,1.0,1.0,50,0.00,,,0.00,Wunderground v.1.15,2013-01-26 01:42:00,
2013-01-25 19:52:00,42.8,25.4,30.31,WSW,245,1.0,1.0,50,0.00,,,0.00,Wunderground v.1.15,2013-01-26 01:52:00,
2013-01-25 20:02:00,42.5,25.6,30.31,WSW,243,1.0,2.0,51,0.00,,,0.00,Wunderground v.1.15,2013-01-26 02:02:00,
2013-01-25 20:12:00,42.2,25.8,30.32,WSW,245,2.0,2.0,52,0.00,,,0.00,Wunderground v.1.15,2013-01-26 02:12:00,
2013-01-25 20:22:00,41.9,26.0,30.32,WSW,242,2.0,2.0,53,0.00,,,0.00,Wunderground v.1.15,2013-01-26 02:22:00,
2013-01-25 20:32:00,41.9,26.0,30.32,West,266,1.0,1.0,53,0.00,,,0.00,Wunderground v.1.15,2013-01-26 02:32:00,
2013-01-25 20:42:00,42.2,25.8,30.32,West,273,0.0,1.0,52,0.00,,,0.00,Wunderground v.1.15,2013-01-26 02:42:00,
2013-01-25 20:52:00,42.1,26.2,30.32,WSW,252,1.0,1.0,53,0.00,,,0.00,Wunderground v.1.15,2013-01-26 02:52:00,
2013-01-25 21:02:00,41.9,26.0,30.32,WNW,283,1.0,1.0,53,0.00,,,0.00,Wunderground v.1.15,2013-01-26 03:02:00,
2013-01-25 21:12:00,41.9,26.0,30.32,West,260,1.0,1.0,53,0.00,,,0.00,Wunderground v.1.15,2013-01-26 03:12:00,
2013-01-25 21:22:00,41.8,25.9,30.32,WSW,249,1.0,1.0,53,0.00,,,0.00,Wunderground v.1.15,2013-01-26 03:22:00,
2013-01-25 21:32:00,41.6,25.7,30.32,SW,236,1.0,1.0,53,0.00,,,0.00,Wunderground v.1.15,2013-01-26 03:32:00,
2013-01-25 21:42:00,41.4,26.0,30.32,WSW,256,0.0,1.0,54,0.00,,,0.00,Wunderground v.1.15,2013-01-26 03:42:00,
2013-01-25 21:52:00,41.5,25.6,30.33,West,264,1.0,1.0,53,0.00,,,0.00,Wunderground v.1.15,2013-01-26 03:52:00,
2013-01-25 22:02:00,41.6,25.7,30.33,West,271,1.0,1.0,53,0.00,,,0.00,Wunderground v.1.15,2013-01-26 04:02:00,
2013-01-25 22:12:00,41.6,25.7,30.33,West,276,1.0,1.0,53,0.00,,,0.00,Wunderground v.1.15,2013-01-26 04:12:00,
2013-01-25 22:22:00,41.6,25.7,30.33,West,276,0.0,0.0,53,0.00,,,0.00,Wunderground v.1.15,2013-01-26 04:22:00,
2013-01-25 22:32:00,41.2,25.8,30.33,North,350,0.0,1.0,54,0.00,,,0.00,Wunderground v.1.15,2013-01-26 04:32:00,
2013-01-25 22:42:00,41.3,25.9,30.33,North,350,1.0,1.0,54,0.00,,,0.00,Wunderground v.1.15,2013-01-26 04:42:00,
2013-01-25 22:52:00,41.6,25.7,30.34,WNW,291,0.0,0.0,53,0.00,,,0.00,Wunderground v.1.15,2013-01-26 04:52:00,
2013-01-25 23:02:00,40.6,25.7,30.34,WSW,255,1.0,3.0,55,0.00,,,0.00,Wunderground v.1.15,2013-01-26 05:02:00,
2013-01-25 23:12:00,40.6,25.7,30.35,WSW,245,2.0,2.0,55,0.00,,,0.00,Wunderground v.1.15,2013-01-26 05:12:00,
2013-01-25 23:22:00,40.4,25.9,30.35,WSW,238,2.0,2.0,56,0.00,,,0.00,Wunderground v.1.15,2013-01-26 05:22:00,
2013-01-25 23:32:00,40.2,26.2,30.34,WSW,240,1.0,1.0,57,0.00,,,0.00,Wunderground v.1.15,2013-01-26 05:32:00,
2013-01-25 23:42:00,40.2,26.2,30.34,SW,233,1.0,1.0,57,0.00,,,0.00,Wunderground v.1.15,2013-01-26 05:42:00,
2013-01-25 23:52:00,40.2,26.6,30.33,SSW,211,1.0,2.0,58,0.00,,,0.00,Wunderground v.1.15,2013-01-26 05:52:00,